Weather History for KOSU - July, 2013

Change the Weather History Date:

Friday, July 12, 2013

  Actual Average (KCMH) Record (KCMH)
Temperature  
Mean Temperature 68 °F 75 °F  
Max Temperature 80 °F 85 °F 103 °F (1936)
Min Temperature 57 °F 66 °F 51 °F (1973)
Degree Days  
Heating Degree Days 0 0  
Month to date heating degree days 0  
Since 1 June heating degree days 19  
Since 1 July heating degree days 0  
Cooling Degree Days 4 10  
Month to date cooling degree days 120  
Year to date cooling degree days 418  
Since 1 June cooling degree days 336  
Growing Degree Days 18 (Base 50)    
Moisture  
Dew Point 58 °F    
Average Humidity 68    
Maximum Humidity 93    
Minimum Humidity 48    
Precipitation  
Precipitation 0.00 in 0.17 in 2.31 in (1990)
Month to date precipitation 1.85  
Year to date precipitation 21.43  
Snow  
Snow 0.00 in 0.00 in 0.00 in ()
Month to date snowfall 0.0  
Since 1 June snowfall 0.0  
Since 1 July snowfall 0.0  
Snow Depth -    
Sea Level Pressure  
Sea Level Pressure 30.07 in    
Wind  
Wind Speed 8 mph (NNE)    
Max Wind Speed 14 mph    
Max Gust Speed 23 mph    
Visibility 10 miles    
Events      
T = Trace of Precipitation, MM = Missing Value Source: NWS Daily Summary

Daily Weather History Graph

Daily Weather History Graph

Search for Another Location

Airport or City:

Trip Planner

Search our weather history database for the weather conditions in past years. The results will help you decide how hot, cold, wet, or windy it might be!

Date:

Astronomy

Jul. 12, 2013 Rise Set
Actual Time 6:13 AM EDT 9:01 PM EDT
Civil Twilight 5:41 AM EDT 9:33 PM EDT
Nautical Twilight 5:01 AM EDT 10:14 PM EDT
Astronomical Twilight 4:15 AM EDT 11:00 PM EDT
Moon 10:29 AM EDT (7/12) 11:11 PM EDT (7/12)
Length of Visible Light 15h 52m
Length of Day
14h 47m
Waxing Crescent, 17% of the Moon is Illuminated
Jul 12
Waxing Crescent
Jul 15
First Quarter
Jul 22
Full
Jul 29
Last Quarter
Aug 6
New

Hourly Weather History & Observations

Time (EDT) Temp. Heat Index Dew Point Humidity Pressure Visibility Wind Dir Wind Speed Gust Speed Precip Events Conditions
12:53 AM 62.1 °F - 55.0 °F 78% 30.04 in 10.0 mi North 4.6 mph - N/A   Clear
1:53 AM 60.1 °F - 55.0 °F 83% 30.05 in 10.0 mi North 5.8 mph - N/A   Clear
2:53 AM 59.0 °F - 55.0 °F 87% 30.04 in 10.0 mi North 6.9 mph - N/A   Clear
3:53 AM 60.1 °F - 55.9 °F 86% 30.04 in 10.0 mi North 5.8 mph - N/A   Clear
4:53 AM 59.0 °F - 55.9 °F 90% 30.05 in 10.0 mi North 4.6 mph - N/A   Clear
5:53 AM 57.9 °F - 55.9 °F 93% 30.06 in 10.0 mi NNW 5.8 mph - N/A   Clear
6:53 AM 60.1 °F - 57.0 °F 90% 30.08 in 10.0 mi North 6.9 mph - N/A   Clear
7:53 AM 64.0 °F - 57.9 °F 80% 30.09 in 10.0 mi North 8.1 mph - N/A   Clear
8:53 AM 66.9 °F - 59.0 °F 76% 30.10 in 10.0 mi North 11.5 mph - N/A   Clear
9:53 AM 70.0 °F - 61.0 °F 73% 30.10 in 10.0 mi NNE 10.4 mph - N/A   Scattered Clouds
10:46 AM 71.6 °F - 62.6 °F 73% 30.11 in 10.0 mi North 9.2 mph - N/A   Mostly Cloudy
10:53 AM 71.1 °F - 61.0 °F 70% 30.10 in 10.0 mi NNE 11.5 mph - N/A   Mostly Cloudy
11:05 AM 71.6 °F - 60.8 °F 69% 30.11 in 10.0 mi NNE 10.4 mph - N/A   Mostly Cloudy
11:53 AM 75.0 °F - 61.0 °F 62% 30.09 in 10.0 mi North 10.4 mph - N/A   Mostly Cloudy
12:53 PM 75.0 °F - 57.0 °F 53% 30.08 in 10.0 mi NE 13.8 mph - N/A   Mostly Cloudy
1:53 PM 75.9 °F - 57.9 °F 54% 30.07 in 10.0 mi NE 9.2 mph - N/A   Mostly Cloudy
2:53 PM 80.1 °F 80.7 °F 59.0 °F 48% 30.05 in 10.0 mi NNE 8.1 mph - N/A   Scattered Clouds
3:53 PM 77.0 °F - 57.9 °F 52% 30.06 in 10.0 mi ENE 13.8 mph 23.0 mph N/A   Partly Cloudy
4:53 PM 79.0 °F - 59.0 °F 50% 30.05 in 10.0 mi ENE 9.2 mph - N/A   Mostly Cloudy
5:53 PM 79.0 °F - 57.9 °F 48% 30.05 in 10.0 mi ENE 11.5 mph - N/A   Clear
6:53 PM 78.1 °F - 57.9 °F 50% 30.05 in 10.0 mi NE 9.2 mph - N/A   Partly Cloudy
7:53 PM 77.0 °F - 57.9 °F 52% 30.06 in 10.0 mi ENE 9.2 mph - N/A   Overcast
8:53 PM 73.0 °F - 54.0 °F 51% 30.07 in 10.0 mi ENE 8.1 mph - N/A   Clear
9:53 PM 73.0 °F - 55.9 °F 55% 30.09 in 10.0 mi East 8.1 mph - N/A   Overcast
10:53 PM 70.0 °F - 57.9 °F 65% 30.09 in 10.0 mi East 4.6 mph - N/A   Partly Cloudy
11:53 PM 68.0 °F - 60.1 °F 76% 30.10 in 10.0 mi NNE 3.5 mph - N/A   Clear